User: anonymous   Login
Location: Bittelbronn
(48.4454°N, 8.5870°E)
Time: 06:02:11
(UTC+00:00)
Language:

SL-08 R/B - Orbit

View from above orbital plane
View from above orbital plane
View from above satellite
View from above satellite

Ground track
Ground track

The orbit data is extracted from the following two-line orbital elements,

1 28381U 04028B   24204.65913316  .00000036  00000-0  20391-4 0  9990
2 28381  82.9560 207.8295 0030650 313.8518 182.6947 13.78472166  6075
Epoch (UTC): 22 July 2024 15:49:09
Eccentricity: 0.0030650
inclination: 82.9560°
perigee height: 947 km
apogee height: 992 km
right ascension of ascending node: 207.8295°
argument of perigee: 313.8518°
revolutions per day: 13.78472166
mean anomaly at epoch: 182.6947°
orbit number at epoch: 607

The dashed part of the orbit path shows where the satellite is in the earth's shadow,  

DLR